Weather History for KAUH - March, 2013

Change the Weather History Date:

Sunday, March 3, 2013

  Actual Average Record
Temperature  
Mean Temperature 37 °F -  
Max Temperature 47 °F 46 °F 75 °F (1974)
Min Temperature 27 °F 23 °F -11 °F (2002)
Degree Days  
Heating Degree Days 28    
Moisture  
Dew Point 33 °F    
Average Humidity 88    
Maximum Humidity 100    
Minimum Humidity 74    
Precipitation  
Precipitation 0.00 in - - ()
Sea Level Pressure  
Sea Level Pressure 29.78 in    
Wind  
Wind Speed 7 mph (SSE)    
Max Wind Speed 15 mph    
Max Gust Speed -    
Visibility 8 miles    
Events      
Averages and records for this station are not official NWS values.
T = Trace of Precipitation, MM = Missing Value Source: NWS Daily Summary

Daily Weather History Graph

Daily Weather History Graph

Search for Another Location

Airport or City:

Trip Planner

Search our weather history database for the weather conditions in past years. The results will help you decide how hot, cold, wet, or windy it might be!

Date:

Astronomy

Mar. 03, 2013 Rise Set
Actual Time 7:02 AM CST 6:25 PM CST
Civil Twilight 6:35 AM CST 6:53 PM CST
Nautical Twilight 6:03 AM CST 7:25 PM CST
Astronomical Twilight 5:31 AM CST 7:56 PM CST
Moon 12:08 AM CST (3/3) 10:16 AM CST (3/3)
Length of Visible Light 12h 18m
Length of Day
11h 23m
Waning Gibbous, 63% of the Moon is Illuminated
Mar 3
Waning Gibbous
Mar 4
Last Quarter
Mar 11
New
Mar 19
First Quarter
Mar 27
Full

Hourly Weather History & Observations

Time (CST) Temp. Windchill Dew Point Humidity Pressure Visibility Wind Dir Wind Speed Gust Speed Precip Events Conditions
12:15 AM 32.0 °F 25.6 °F 30.0 °F 92% 30.00 in 7.0 mi SSW 6.9 mph - N/A   Clear
12:35 AM 31.6 °F 24.4 °F 29.8 °F 93% 29.99 in 7.0 mi SSW 8.1 mph - N/A   Clear
12:55 AM 31.5 °F 25.8 °F 29.8 °F 94% 29.99 in 7.0 mi SSW 5.8 mph - N/A   Clear
1:15 AM 31.1 °F 25.4 °F 29.7 °F 94% 29.98 in 7.0 mi SSW 5.8 mph - N/A   Clear
1:55 AM 30.9 °F 25.2 °F 29.3 °F 94% 29.97 in 7.0 mi South 5.8 mph - N/A   Clear
2:15 AM 31.1 °F 26.4 °F 29.8 °F 95% 29.96 in 7.0 mi South 4.6 mph - N/A   Clear
2:35 AM 30.9 °F 26.2 °F 29.7 °F 95% 29.95 in 7.0 mi South 4.6 mph - N/A   Clear
2:55 AM 30.7 °F 26.0 °F 29.3 °F 94% 29.93 in 7.0 mi South 4.6 mph - N/A   Clear
3:15 AM 30.4 °F 26.9 °F 29.3 °F 96% 29.92 in 5.0 mi South 3.5 mph - N/A   Clear
3:35 AM 30.2 °F 26.7 °F 29.3 °F 96% 29.91 in 5.0 mi South 3.5 mph - N/A   Clear
3:55 AM 29.3 °F 24.3 °F 28.6 °F 97% 29.90 in 5.0 mi SSE 4.6 mph - N/A   Clear
4:15 AM 29.1 °F 24.1 °F 28.8 °F 99% 29.90 in 5.0 mi South 4.6 mph - N/A   Clear
4:35 AM 29.1 °F 24.1 °F 28.9 °F 99% 29.89 in 5.0 mi SSE 4.6 mph - N/A   Clear
4:55 AM 28.6 °F 23.5 °F 28.4 °F 99% 29.89 in 5.0 mi SSE 4.6 mph - N/A   Clear
5:15 AM 28.4 °F 23.3 °F 28.4 °F 100% 29.88 in 5.0 mi SE 4.6 mph - N/A   Clear
5:35 AM 28.8 °F 23.7 °F 28.8 °F 100% 29.88 in 5.0 mi SE 4.6 mph - N/A   Clear
5:55 AM 28.6 °F 23.5 °F 28.6 °F 100% 29.88 in 5.0 mi SE 4.6 mph - N/A   Clear
6:15 AM 28.2 °F 23.1 °F 28.2 °F 100% 29.87 in 5.0 mi SE 4.6 mph - N/A   Clear
6:35 AM 28.0 °F 22.8 °F 28.0 °F 100% 29.87 in 5.0 mi SE 4.6 mph - N/A   Clear
6:55 AM 28.0 °F 21.7 °F 28.0 °F 100% 29.87 in 5.0 mi SE 5.8 mph - N/A   Clear
7:15 AM 27.7 °F 22.4 °F 27.7 °F 100% 29.88 in 4.0 mi SSE 4.6 mph - N/A   Clear
7:35 AM 28.4 °F 22.2 °F 28.4 °F 100% 29.86 in 3.0 mi SSE 5.8 mph - N/A   Clear
7:55 AM 29.3 °F 23.2 °F 29.3 °F 100% 29.86 in 3.0 mi SSE 5.8 mph - N/A   Clear
8:15 AM 30.2 °F 24.3 °F 30.2 °F 100% 29.86 in 4.0 mi South 5.8 mph - N/A   Clear
8:35 AM 31.1 °F 26.4 °F 30.9 °F 99% 29.86 in 4.0 mi SSE 4.6 mph - N/A   Clear
8:55 AM 31.8 °F 26.2 °F 31.1 °F 97% 29.86 in 4.0 mi SSE 5.8 mph - N/A   Clear
9:15 AM 32.7 °F 27.3 °F 31.8 °F 96% 29.84 in 5.0 mi SE 5.8 mph - N/A   Clear
9:35 AM 34.0 °F 28.8 °F 32.2 °F 93% 29.84 in 5.0 mi SSE 5.8 mph - N/A   Clear
9:55 AM 34.9 °F 29.0 °F 32.9 °F 92% 29.82 in 5.0 mi SE 6.9 mph - N/A   Clear
10:15 AM 36.5 °F 29.7 °F 33.6 °F 89% 29.82 in 7.0 mi SSE 9.2 mph - N/A   Clear
10:35 AM 38.5 °F 31.6 °F 34.2 °F 84% 29.82 in 7.0 mi SSE 10.4 mph - N/A   Clear
10:55 AM 39.2 °F 32.5 °F 34.3 °F 83% 29.82 in 10.0 mi SSE 10.4 mph - N/A   Clear
11:15 AM 40.1 °F 35.3 °F 34.9 °F 82% 29.81 in 10.0 mi SSE 6.9 mph - N/A   Clear
11:35 AM 41.4 °F 37.6 °F 35.6 °F 80% 29.80 in 10.0 mi SSE 5.8 mph - N/A   Clear
11:55 AM 42.1 °F 37.1 °F 36.0 °F 79% 29.79 in 10.0 mi SSE 8.1 mph - N/A   Clear
12:15 PM 42.6 °F 37.8 °F 36.5 °F 79% 29.78 in 10.0 mi SE 8.1 mph - N/A   Clear
12:35 PM 43.5 °F 38.3 °F 37.2 °F 78% 29.78 in 10.0 mi SE 9.2 mph - N/A   Clear
12:55 PM 44.4 °F 39.5 °F 38.1 °F 79% 29.77 in 10.0 mi SSE 9.2 mph - N/A   Clear
1:15 PM 45.3 °F 40.1 °F 37.9 °F 75% 29.75 in 10.0 mi SSE 10.4 mph - N/A   Clear
1:35 PM 47.1 °F - 39.4 °F 74% 29.73 in 10.0 mi SSE 10.4 mph - N/A   Clear
1:55 PM 47.3 °F - 39.6 °F 74% 29.72 in 10.0 mi SSE 11.5 mph - N/A   Clear
2:15 PM 46.9 °F - 40.1 °F 77% 29.70 in 10.0 mi ESE 13.8 mph - N/A   Clear
2:35 PM 46.6 °F - 39.4 °F 76% 29.70 in 10.0 mi SSE 11.5 mph - N/A   Clear
2:55 PM 46.4 °F 41.5 °F 38.7 °F 74% 29.70 in 10.0 mi SSE 10.4 mph - N/A   Mostly Cloudy
3:35 PM 46.4 °F 41.1 °F 39.0 °F 75% 29.68 in 10.0 mi SE 11.5 mph - N/A   Overcast
3:55 PM 46.2 °F 41.2 °F 39.0 °F 76% 29.68 in 10.0 mi SE 10.4 mph - N/A   Mostly Cloudy
4:15 PM 45.5 °F 39.9 °F 38.3 °F 76% 29.67 in 10.0 mi SE 11.5 mph - N/A   Scattered Clouds
4:35 PM 45.7 °F 40.2 °F 38.7 °F 76% 29.66 in 10.0 mi SE 11.5 mph - N/A   Clear
4:55 PM 45.7 °F 39.1 °F 38.8 °F 77% 29.65 in 10.0 mi SE 15.0 mph - N/A   Clear
5:15 PM 45.5 °F 39.9 °F 39.0 °F 78% 29.65 in 10.0 mi ESE 11.5 mph - N/A   Mostly Cloudy
5:35 PM 45.0 °F 39.7 °F 38.5 °F 78% 29.66 in 10.0 mi SE 10.4 mph - N/A   Mostly Cloudy
5:55 PM 44.1 °F 39.5 °F 37.8 °F 78% 29.66 in 10.0 mi SE 8.1 mph - N/A   Scattered Clouds
6:35 PM 42.8 °F 40.1 °F 36.9 °F 80% 29.69 in 10.0 mi South 4.6 mph - N/A   Mostly Cloudy
6:55 PM 43.0 °F 37.7 °F 37.0 °F 80% 29.70 in 10.0 mi South 9.2 mph - N/A   Overcast
7:15 PM 40.6 °F 37.5 °F 35.8 °F 83% 29.70 in 10.0 mi South 4.6 mph - N/A   Mostly Cloudy
7:35 PM 40.1 °F 34.1 °F 36.0 °F 85% 29.68 in 10.0 mi SSE 9.2 mph - N/A   Clear
7:55 PM 39.2 °F 32.0 °F 35.6 °F 87% 29.67 in 10.0 mi SSE 11.5 mph - N/A   Clear
8:15 PM 38.8 °F 31.6 °F 35.2 °F 87% 29.66 in 10.0 mi SSE 11.5 mph - N/A   Clear
8:35 PM 38.3 °F 30.1 °F 35.1 °F 88% 29.66 in 10.0 mi SSE 13.8 mph - N/A   Clear
8:55 PM 38.1 °F 31.7 °F 35.1 °F 89% 29.66 in 10.0 mi SSE 9.2 mph - N/A   Clear
9:15 PM 37.8 °F 30.2 °F 34.7 °F 89% 29.65 in 10.0 mi SSE 11.5 mph - N/A   Clear
9:35 PM 36.9 °F 29.1 °F 34.0 °F 89% 29.65 in 10.0 mi SE 11.5 mph - N/A   Clear
9:55 PM 36.1 °F 28.2 °F 33.6 °F 91% 29.65 in 10.0 mi SE 11.5 mph - N/A   Clear
10:15 PM 36.5 °F 27.8 °F 33.6 °F 89% 29.64 in 10.0 mi SSE 13.8 mph - N/A   Clear
10:35 PM 36.7 °F 28.9 °F 33.1 °F 87% 29.63 in 10.0 mi SE 11.5 mph - N/A   Clear
10:55 PM 35.8 °F 27.3 °F 32.9 °F 89% 29.63 in 10.0 mi SE 12.7 mph - N/A   Clear
11:15 PM 35.6 °F 26.2 °F 32.2 °F 87% 29.63 in 10.0 mi SSE 15.0 mph - N/A   Clear
11:35 PM 35.1 °F 26.9 °F 32.0 °F 89% 29.62 in 10.0 mi SE 11.5 mph - N/A   Clear
11:55 PM 34.3 °F 27.0 °F 32.0 °F 91% 29.63 in 7.0 mi SE 9.2 mph - N/A   Clear